Погода в Крючковке

Россия / Оренбургская область     51°33′58″N   55°56′11″E
темп.,
°C
ветер,
м/с
пор.,
м/с
влажн.,
%
обл.,
%
осадки,
мм/ч
давл.,
гПа
погр.,
м
23 сентября, чт
чт2323:00+13в3740100 0.0 1022164
02:00+12вюв4937100 0.0 1022237
05:00+12вюв4936100 0.0 1023268
08:00+12вюв5103696 0.0 1023335
11:00+16вюв792792 0.0 1024736
14:00+20вюв782359 0.0 10221470
17:00+20вюв7822100 0.0 10211614
20:00+15в51225100 0.0 1022255
24 сентября, пт
пт2423:00+14вюв71530100 0.0 1023504
02:00+13вюв71538100 0.0 1023652
05:00+12юв71442100 0.0 1023593
08:00+11вюв71441100 0.0 1023606
11:00+14юв91232100 0.0 1023785
14:00+18юв91124100 0.0 10211211
17:00+19юв81219100 0.0 10181319
20:00+17юв81423100 0.0 1017966
25 сентября, сб
сб2523:00+16юв81524100 0.0 1017834
02:00+14юв91725100 0.0 1015722
05:00+14юв91724100 0.0 1014664
08:00+13вюв81623100 0.0 1012644
11:00+15юв61122100 0.0 1012767
14:00+17ююв5823100 0.0 10111076
17:00+17юз2227100 0.0 100951
20:00+14юз2248100 0.0 101043
26 сентября, вс
вс2623:00+13зсз2253100 0.0 100965
02:00+12зсз2369100 0.0 100960
05:00+10з2279100 0.0 100813
08:00+11з1178100 0.0 100816
11:00+15з3353100 0.0 1008659
14:00+16з4348100 0.0 1008976
17:00+16зсз2352100 0.0 1008989
20:00+12в6869100 0.6 1008370
27 сентября, пн
пн2723:00+11в4676100 0.8 1008261
02:00+11в4868100 0.0 1009514
05:00+9в6975100 0.5 1010573
08:00+6в71176100 0.0 1012570
11:00+5в81079100 0.1 1015608
14:00+5в71081100 0.1 1016685
17:00+6в81070100 0.1 1017800
20:00+5в81168100 0.0 1018952